map of CAB home
Great Circle Mapper logo
CAB - Airport
Location
City:  Cabinda, Angola
ICAO / IATA:FNCA / CAB

Details
Type:Airport (Aerodrome, Airfield)
Use:Public/Civil
Latitude:535'49"S (-5.596991)
Longitude:1211'18"E (12.188353)
Datum:WGS 1984
Elevation:66 ft (20 m)
Variation:3.12W (WMM2015 magnetic declination)
0.16 annual change
Runways:1
Longest:8202 × 98 ft (2500 × 30 m), paved

Time
Time Zone:UTC+1
Local Time:

Weather
METAR:FNCA 011800Z 20005KT 9999 FEW016 BKN240 27/25 Q1010
TAF:FNCA 011100Z 0112/0124 27010KT 9999 SCT020 BKN050
BECMG 0112/0114 21010KT FEW020 SCT040
TEMPO 0114/0118 SCT015 FEW025TCU
BECMG 0118/0120 VRB03KT SCT020

Related Locations
Nearby:
Farthest:PLPA: 12055 mi / 19400 km
Palmyra Island Atoll [Palmyra Airport (Cooper)], UM

Find:

   beyond  
but within

Other Information
Maps:
NOTAMs:
Links:
Sources:

  
flag of Angola   

Sectional Chart

Flight Planning
at skyvector.com

Satellite Image

Google Maps Satellite View

 

Copyright © 2004-2015 Karl L. Swartz. All rights reserved.
The Great Circle Mapper name and logo are trademarks of the Great Circle Mapper.
All other trademarks mentioned herein belong to their respective owners.
Please see credits for attibutions and further copyright information.

  Follow gcmap on Facebook Follow gcmap on Twitter Follow gcmap on Google+

hCard Microformat

Geo Microformat